Weather Roundup
Issued by NWS

Home | Current Version | Previous Version | Graphics & Text | Print | Product List | Glossary Off
Versions: 1 2 3 4 5 6 7 8 9 10 11 12 13 14 15 16 17 18 19 20 21 22 23 24 25 26 27 28 29 30 31 32 33 34 35 36 37 38 39 40 41 42 43 44 45 46 47 48 49 50

000
NZUS93 KARX 220710
HRRWXR

CURRENT HOURLY OBSERVATIONS ACROSS
MUCH OF THE UPPER MISSISSIPPI VALLEY
NATIONAL WEATHER SERVICE LA CROSSE WI
100 AM CST MON DEC 22 2014


...SOUTHEAST MINNESOTA...


CITY           SKY/WX    TMP DP  RH WIND       PRES   REMARKS
ROCHESTER      CLOUDY    35  34  96 S18       29.75F FOG     WCI  24
ROCHESTER/MAYO CLOUDY    36  35  99 SE14G24   29.75F WCI  27
WINONA         CLOUDY    37  36  93 S6        29.81F FOG     WCI  33
AUSTIN         LGT RAIN  36  36 100 S10G16    29.73F WCI  28
ALBERT LEA     DRIZZLE   37  37 100 S13       29.70F WCI  29
DODGE CENTER   FOG       37  37 100 S15       29.73S VSB 1   WCI  28
PRESTON        CLOUDY    34  33  96 S15       29.78S FOG     WCI  24
OWATONNA       DRIZZLE   37  36  93 SE15      29.71F WCI  28
FARIBAULT      CLOUDY    39  37  93 SE17G23   29.70F FOG     WCI  30
$$

...ELSEWHERE IN MINNESOTA...


CITY           SKY/WX    TMP DP  RH WIND       PRES   REMARKS
MINNEAPOLIS    CLOUDY    38  36  92 SE12      29.71F FOG     WCI  30
INTNL FALLS    CLOUDY    33  31  92 SE7       29.66F FOG     WCI  27
DULUTH         FOG       34  33  96 S10       29.70S VSB 1/4 WCI  26
RED WING       CLOUDY    37  36  93 S15G23    29.75F FOG     WCI  28
REDWOOD FALLS  CLOUDY    38  36  92 SE20      29.59F WCI  28
MANKATO        CLOUDY    39  36  87 S17       29.67F WCI  30
WORTHINGTON    CLOUDY    39 -11  11 S15G22    29.58F WCI  31
FAIRMONT       CLOUDY    37  36  93 SE17      29.65F WCI  28
$$

...SOUTHWEST WISCONSIN...


CITY           SKY/WX    TMP DP  RH WIND       PRES   REMARKS
LA CROSSE      CLOUDY    38  34  85 SE10      29.83F WCI  31
PRAIRIE DU CHI CLOUDY    36  31  83 SE6       29.85F WCI  31
BOSCOBEL       CLOUDY    37  31  78 S9        29.88F WCI  30
LONE ROCK      CLOUDY    39  30  70 SE8       29.90F WCI  33
PLATTEVILLE    CLOUDY    34  32  92 SE14      29.88F WCI  25
FORT MC COY    CLOUDY    36  32  87 S13       29.85F WCI  27
CAMP DOUGLAS   CLOUDY    35  35 100 SE9       29.87S WCI  28
VIROQUA        CLOUDY    33  33 100 S13       29.83F WCI  24
WIS DELLS      CLOUDY    34  30  85 S9G17     29.89F WCI  27
$$

...ELSEWHERE IN WISCONSIN...


CITY           SKY/WX    TMP DP  RH WIND       PRES   REMARKS
MILWAUKEE      CLOUDY    34  28  79 S9        29.99F WCI  27
MADISON        CLOUDY    35  29  78 S13       29.92F WCI  26
GREEN BAY      CLOUDY    36  30  79 S13       29.95F WCI  27
EAU CLAIRE     CLOUDY    36  33  89 S14       29.79F WCI  27
BLACK RVR FLS  CLOUDY    36  35  95 S5        29.84S FOG     WCI  32
MEDFORD        CLOUDY    32  32  99 S12       29.82F FOG     WCI  23
WAUSAU         CLOUDY    33  31  92 S13       29.86S FOG     WCI  24
WIS RAPIDS     LGT SNOW  34  30  85 S9        29.89S FOG     WCI  27
MARSHFIELD     CLOUDY    34  32  92 S13       29.84F FOG     WCI  25
RICE LAKE      LGT SNOW  33  32  97 SE7       29.78S WCI  27
$$

...NORTHEAST IOWA...


CITY           SKY/WX    TMP DP  RH WIND       PRES   REMARKS
DECORAH        CLOUDY    36  36 100 S14       29.79F FOG     WCI  27
MASON CITY     LGT RAIN  38  37  97 SE15      29.73F FOG     WCI  29
CHARLES CITY   CLOUDY    37  37 100 SE17G25   29.77F FOG     WCI  28
OELWEIN        CLOUDY    36  36 100 SE16      29.81S FOG     WCI  26
$$

...ELSEWHERE IN IOWA...


CITY           SKY/WX    TMP DP  RH WIND       PRES   REMARKS
DES MOINES     LGT RAIN  42  39  89 S15       29.73F FOG
IOWA CITY      CLOUDY    37  33  85 SE10      29.86F WCI  30
FORT DODGE     CLOUDY    39  37  93 S10G21    29.69F WCI  32
$$

...NORTHERN ILLINOIS...


CITY           SKY/WX    TMP DP  RH WIND       PRES   REMARKS
CHICAGO-OHARE  MOCLDY    32  27  81 S9        29.98F WCI  24
CHICAGO-MIDWAY MOCLDY    34  28  79 SE10      30.00F WCI  26
MOLINE         CLOUDY    35  31  85 SE12      29.88F WCI  27
ROCKFORD       LGT RAIN  34  29  82 S13       29.96F WCI  25
PEORIA         CLOUDY    38  30  73 S13       29.94F WCI  30
$$

NOTE: "FAIR" INDICATES FEW OR NO CLOUDS BELOW 12,000 FEET WITH NO
SIGNIFICANT WEATHER AND/OR OBSTRUCTIONS TO VISIBILITY. WIND
SPEEDS ARE IN MILES-PER-HOUR.



USA.gov is the U.S. government's official web portal to all federal, state and local government web resources and services.